[[{"header":{"parameterUnit":"m.s-1","parameterCategory":1,"la1":30.2991,"la2":30.254,"lo1":-89.0895,"lo2":-89.0444,"dy":0.0017,"dx":0.0017,"nx":28,"ny":28,"refTime":"2024-10-01T03:00:00:Z","depth":0,"parameterNumber":2,"parameterNumberName":"U-component_of_WINDS"},"data":[0,0,0,0,0,0,0,0,0,0,0,0,0,0,0,0,0,0,0,0,0,0,0,0,0,0,0,0,0,0,0,0,0,0,0,0,0,0,0,0,0,0,0,0,0,0,0,0,0,0,0,0,0,0,0,0,0,0,1.155,1.1552,0,1.1689,1.169,1.1692,1.1703,1.1702,1.17,1.1699,1.1844,1.1849,1.1854,0,0,0,0,0,0,0,0,0,0,0,0,0,1.1296,1.1301,1.155,1.1552,1.1553,1.1688,1.169,1.1692,1.1703,1.1702,1.17,1.1698,1.1842,1.1848,1.1855,0,0,0,0,0,0,0,0,0,0,0,0,0,1.1418,1.1302,1.155,1.1575,1.1579,1.1688,1.169,1.1693,1.1704,1.1701,1.1699,1.1697,1.184,1.1848,1.1856,1.195,0,0,1.188,1.1883,0,0,0,0,0,0,0,0,1.1411,1.1427,1.157,1.1574,1.1578,1.1676,1.1654,1.1779,1.1704,1.1656,1.1699,1.1696,1.179,1.1802,1.1833,1.1957,1.1963,1.1881,1.1885,1.1889,1.1891,0,0,0,0,0,0,0,1.1402,1.1421,1.1605,1.1572,1.1577,1.158,1.1595,1.1678,1.1735,1.166,1.1662,1.1678,1.1792,1.1826,1.1837,1.1965,1.188,1.1887,1.1892,1.1895,1.217,1.2172,0,0,0,0,0,0,1.1389,1.1414,1.1601,1.1609,1.1487,1.1586,1.1603,1.1647,1.1734,1.1745,1.1679,1.1678,1.1813,1.1827,1.1842,1.1955,1.1889,1.1896,1.1901,1.2167,1.217,1.2173,0,0,0,0,0,0,1.1383,1.1405,1.1595,1.1512,1.1536,1.1593,1.1643,1.1651,1.1684,1.1748,1.1758,1.1703,1.1812,1.1831,1.1922,1.1961,1.19,1.1907,1.2164,1.2168,1.2172,1.2184,0,0,0,0,0,0,1.1376,1.1403,1.144,1.1513,1.1541,1.1672,1.1645,1.1655,1.1698,1.1697,1.1773,1.1783,1.1812,1.191,1.193,1.197,1.1913,1.2161,1.2166,1.2171,1.2181,1.2188,1.2195,0,0,0,0,0,1.1367,1.1439,1.1441,1.1464,1.1587,1.1675,1.1691,1.1721,1.1701,1.1737,1.1778,1.1781,1.1953,1.1919,1.1942,1.1985,1.2159,1.2165,1.217,1.2178,1.2187,1.2194,0,0,0,0,0,0,1.1371,1.1449,1.1453,1.155,1.1605,1.1676,1.1724,1.173,1.1793,1.1789,1.1825,1.1842,1.1932,1.1968,1.1929,1.2079,1.2054,1.2064,1.2052,1.2061,1.2068,1.2056,1.192,0,0,0,0,0,1.1382,1.1446,1.1512,1.1592,1.1619,1.1667,1.1706,1.1724,1.1783,1.1807,1.1854,1.1912,1.1979,1.2023,1.2088,1.2187,1.2202,1.2227,1.2234,1.224,1.2248,1.23,1.2311,1.2192,1.2192,1.2192,0,0,1.1408,1.1459,1.1498,1.1594,1.1639,1.1704,1.1686,1.1757,1.1805,1.1818,1.1906,1.1943,1.201,1.2104,1.2148,1.2137,1.2284,1.2247,1.2251,1.2256,1.2307,1.2318,1.2328,1.2196,1.2195,1.2195,0,0,1.1488,1.1534,1.1603,1.1648,1.1716,1.1746,1.1763,1.1833,1.1857,1.1946,1.1955,1.2014,1.213,1.2176,1.2215,1.2309,1.2314,1.233,1.2365,1.2416,1.2425,1.2433,1.2465,1.2476,1.2338,1.2338,1.2338,0,1.1511,1.1609,1.1639,1.1708,1.1749,1.1763,1.1833,1.1876,1.1962,1.199,1.1976,1.2119,1.2165,1.2269,1.2292,1.2324,1.2343,1.2321,1.2421,1.243,1.2438,1.2468,1.248,1.234,1.2339,1.2339,1.2339,0,1.1633,1.1701,1.175,1.183,1.1877,1.1947,1.1987,1.2031,1.2045,1.2077,1.2166,1.2222,1.2297,1.2324,1.2339,1.2429,1.242,1.2414,1.2388,1.245,1.2479,1.2491,1.2341,1.2341,1.2341,1.234,0,0,1.1719,1.1813,1.183,1.1866,1.194,1.1993,1.2063,1.2136,1.2172,1.2231,1.2289,1.2385,1.2378,1.2422,1.2443,1.2487,1.2555,1.2475,1.2477,1.2486,1.2655,1.2658,1.2671,1.2559,1.2562,1.2563,1.2649,0,1.1805,1.1928,1.1956,1.2062,1.2124,1.2136,1.2197,1.2249,1.2281,1.2338,1.2374,1.244,1.2428,1.2453,1.2498,1.2537,1.2589,1.2532,1.2613,1.2615,1.2593,1.2687,1.269,1.2768,1.266,1.2662,1.2664,0,1.1921,1.198,1.2091,1.2155,1.2182,1.2236,1.2303,1.2358,1.2417,1.2437,1.2485,1.25,1.2573,1.2545,1.2644,1.2605,1.264,1.2664,1.2668,1.2675,1.2642,1.2694,1.2794,1.2805,1.2683,1.2681,1.268,0,1.1969,1.2076,1.2156,1.2187,1.2264,1.2301,1.2335,1.2392,1.2433,1.2492,1.2518,1.2586,1.2622,1.2674,1.2707,1.2684,1.2803,1.2779,1.2821,1.282,1.2844,1.2842,1.2949,1.287,1.287,1.287,1.287,0,1.206,1.2127,1.2178,1.2227,1.2302,1.2334,1.2407,1.2442,1.2492,1.2547,1.2564,1.2615,1.2657,1.2714,1.2741,1.2817,1.2835,1.2852,1.2858,1.2849,1.2847,1.2871,1.2866,1.2873,1.2872,1.2872,1.2871,0,1.2125,1.2162,1.225,1.2315,1.2333,1.2385,1.2441,1.2489,1.252,1.259,1.2609,1.2658,1.2726,1.2764,1.2851,1.2869,1.2954,1.2958,1.2933,1.2935,1.2974,1.2968,1.3099,1.3116,1.3028,1.3029,1.3029,0,1.218,1.2232,1.2302,1.2339,1.2373,1.2434,1.2475,1.2509,1.2551,1.262,1.2659,1.2728,1.2785,1.2893,1.2937,1.3003,1.3007,1.3048,1.3017,1.3006,1.3005,1.3,1.3004,1.3053,1.3054,1.3054,1.3055,0,1.2272,1.2287,1.2345,1.2409,1.2457,1.251,1.2562,1.2592,1.2634,1.268,1.2749,1.2792,1.2879,1.2947,1.3015,1.3051,1.3059,1.3064,1.3077,1.3068,1.305,1.3057,1.2945,1.3061,1.306,1.306,1.306,1.3059,1.2333,1.2378,1.2433,1.2497,1.2539,1.2586,1.2633,1.267,1.2727,1.2799,1.2816,1.2888,1.2944,1.3037,1.3074,1.3131,1.3123,1.3143,1.3147,1.315,1.315,1.3042,1.3144,1.3144,1.3144,1.3144,1.3144,0,1.2423,1.2459,1.2517,1.2588,1.2637,1.2641,1.2698,1.2739,1.2801,1.2853,1.2907,1.2985,1.305,1.3099,1.3165,1.3201,1.3206,1.3217,1.3214,1.3221,1.3155,1.3136,1.3211,1.3211,1.3211,1.3211,1.3211,1.3211,1.2476,1.2551,1.2573,1.2669,1.2705,1.2775,1.2806,1.285,1.2891,1.2977,1.303,1.3061,1.3111,1.318,1.324,1.3252,1.3275,1.3284,1.3297,1.3234,1.3226,1.3219,1.3202,1.329,1.329,1.3359,1.3359,1.336]},{"header":{"parameterUnit":"m.s-1","parameterCategory":1,"la1":30.2991,"la2":30.254,"lo1":-89.0895,"lo2":-89.0444,"dy":0.0017,"dx":0.0017,"nx":28,"ny":28,"refTime":"2024-10-01T03:00:00:Z","depth":0,"parameterNumber":3,"parameterNumberName":"V-component_of_WINDS"},"data":[0,0,0,0,0,0,0,0,0,0,0,0,0,0,0,0,0,0,0,0,0,0,0,0,0,0,0,0,0,0,0,0,0,0,0,0,0,0,0,0,0,0,0,0,0,0,0,0,0,0,0,0,0,0,0,0,0,0,1.1306,1.1306,0,1.1323,1.1323,1.1323,1.1275,1.1273,1.1272,1.127,1.1291,1.1293,1.1295,0,0,0,0,0,0,0,0,0,0,0,0,0,1.1234,1.1235,1.1306,1.1306,1.1306,1.1322,1.1323,1.1323,1.1275,1.1273,1.1271,1.127,1.129,1.1293,1.1295,0,0,0,0,0,0,0,0,0,0,0,0,0,1.1259,1.1236,1.1306,1.1284,1.1282,1.1322,1.1323,1.1323,1.1275,1.1273,1.1271,1.1269,1.129,1.1293,1.1295,1.1358,0,0,1.1304,1.1306,0,0,0,0,0,0,0,0,1.1258,1.1262,1.1287,1.1286,1.1284,1.1294,1.1305,1.1335,1.1276,1.1278,1.127,1.1268,1.1294,1.1297,1.1305,1.1359,1.136,1.1305,1.1306,1.1308,1.1308,0,0,0,0,0,0,0,1.1256,1.1261,1.1312,1.1288,1.1285,1.1274,1.1275,1.131,1.1299,1.1278,1.1274,1.1277,1.1293,1.1302,1.1305,1.136,1.1305,1.1307,1.1309,1.131,1.1463,1.1465,0,0,0,0,0,0,1.1257,1.126,1.1312,1.1313,1.1265,1.1277,1.1278,1.1293,1.1298,1.1297,1.1279,1.1274,1.1298,1.1302,1.1305,1.1376,1.1308,1.131,1.1312,1.1461,1.1464,1.1466,0,0,0,0,0,0,1.1256,1.1262,1.1311,1.1285,1.1291,1.1281,1.1298,1.1295,1.1304,1.1299,1.1297,1.129,1.1297,1.1301,1.1344,1.1376,1.1312,1.1314,1.1458,1.1462,1.1465,1.152,0,0,0,0,0,0,1.1254,1.1262,1.1285,1.1286,1.1292,1.135,1.13,1.1297,1.1308,1.1303,1.1309,1.1308,1.1295,1.134,1.1347,1.1379,1.1317,1.1455,1.146,1.1464,1.1515,1.1525,1.1533,0,0,0,0,0,1.1251,1.1302,1.1287,1.1293,1.1322,1.1352,1.1355,1.1339,1.1311,1.1335,1.1331,1.1308,1.1372,1.1345,1.1353,1.1386,1.1453,1.1458,1.1463,1.1511,1.1523,1.1533,0,0,0,0,0,0,1.1307,1.1302,1.1285,1.1337,1.1345,1.1343,1.1373,1.1352,1.1369,1.1363,1.1343,1.1345,1.1391,1.1393,1.1363,1.1445,1.1408,1.1415,1.1441,1.1453,1.1461,1.1459,1.1319,0,0,0,0,0,1.1326,1.135,1.1344,1.1391,1.1395,1.1383,1.1396,1.1382,1.139,1.1393,1.1393,1.1402,1.1423,1.1439,1.1459,1.1516,1.1515,1.1542,1.1551,1.1558,1.1564,1.159,1.1601,1.1483,1.1483,1.1483,0,0,1.1364,1.1364,1.1381,1.1402,1.1406,1.1431,1.1386,1.1416,1.1434,1.1398,1.1437,1.1437,1.1446,1.1495,1.1517,1.1498,1.1596,1.1565,1.1571,1.1572,1.1597,1.1608,1.1618,1.1487,1.1486,1.1485,0,0,1.1446,1.1449,1.1486,1.1491,1.1497,1.1488,1.1497,1.1498,1.1496,1.1535,1.1507,1.1529,1.1568,1.1574,1.1582,1.1663,1.1641,1.167,1.1716,1.1743,1.1752,1.176,1.1786,1.1795,1.1676,1.1677,1.1677,0,1.1493,1.1528,1.1509,1.1538,1.1547,1.1514,1.1551,1.1557,1.157,1.1577,1.1556,1.1601,1.1605,1.1653,1.1673,1.1682,1.169,1.1669,1.1752,1.176,1.1767,1.1791,1.1802,1.168,1.168,1.1679,1.1679,0,1.1584,1.1609,1.1639,1.1649,1.1662,1.1696,1.1681,1.1696,1.1681,1.1674,1.1713,1.1716,1.1734,1.1745,1.1732,1.1791,1.1778,1.1755,1.1717,1.1782,1.1804,1.1814,1.1685,1.1683,1.1682,1.1682,0,0,1.1702,1.1699,1.171,1.1712,1.1716,1.1735,1.1767,1.1782,1.1794,1.1805,1.1829,1.1861,1.1839,1.1848,1.1835,1.1858,1.1918,1.1832,1.1832,1.1845,1.1979,1.1994,1.2005,1.1904,1.1906,1.1907,1.1977,0,1.178,1.1831,1.1813,1.1866,1.1887,1.1855,1.1882,1.1887,1.1881,1.1899,1.1893,1.1915,1.1885,1.1889,1.1911,1.1906,1.1944,1.1901,1.1925,1.1926,1.1921,1.2018,1.2035,1.2101,1.1986,1.1987,1.1989,0,1.1878,1.1888,1.1942,1.1938,1.1946,1.1971,1.1982,1.2,1.2004,1.1998,1.2007,1.1988,1.2018,1.1981,1.202,1.1991,1.2,1.1999,1.2001,1.2001,1.196,1.2017,1.2122,1.2131,1.2003,1.2002,1.2001,0,1.1954,1.1982,1.2017,1.2021,1.2018,1.2035,1.2035,1.2037,1.2047,1.2057,1.2063,1.2078,1.2085,1.2097,1.2082,1.2057,1.2123,1.2086,1.2117,1.2118,1.2131,1.213,1.2236,1.2142,1.2141,1.2141,1.2141,0,1.2041,1.2075,1.205,1.2072,1.2108,1.2087,1.2123,1.212,1.2121,1.214,1.2115,1.2134,1.2115,1.2132,1.2121,1.2153,1.2158,1.2153,1.2149,1.2154,1.2154,1.2158,1.2152,1.2144,1.2143,1.2143,1.2142,0,1.2132,1.2117,1.2152,1.2146,1.2145,1.2171,1.2166,1.2185,1.2177,1.2202,1.2206,1.2194,1.2212,1.2199,1.2218,1.2211,1.2252,1.2244,1.225,1.2247,1.2278,1.2274,1.2388,1.24,1.2301,1.2302,1.2302,0,1.2187,1.2211,1.2206,1.2216,1.2217,1.2235,1.2243,1.2224,1.2234,1.2238,1.2257,1.2273,1.2284,1.2315,1.2308,1.2321,1.2311,1.235,1.2313,1.2316,1.2308,1.2305,1.2306,1.2357,1.2358,1.2359,1.236,0,1.2285,1.2276,1.2289,1.2299,1.2309,1.2316,1.2322,1.2332,1.2311,1.2324,1.2341,1.235,1.2368,1.2383,1.2394,1.2394,1.2373,1.2371,1.2379,1.2383,1.2384,1.238,1.2267,1.2369,1.2368,1.2367,1.2367,1.2366,1.2358,1.2377,1.2375,1.2389,1.239,1.2395,1.2411,1.2404,1.2418,1.2429,1.2417,1.2437,1.2439,1.245,1.2452,1.2468,1.2452,1.2464,1.2466,1.2469,1.2471,1.2383,1.247,1.247,1.247,1.2469,1.2469,0,1.2452,1.2449,1.2462,1.2468,1.2479,1.2458,1.2462,1.2472,1.249,1.2492,1.2503,1.2521,1.2535,1.2528,1.254,1.2554,1.2544,1.2557,1.2555,1.2554,1.2487,1.2477,1.2564,1.2564,1.2564,1.2564,1.2564,1.2564,1.2502,1.2531,1.2522,1.2551,1.2548,1.2566,1.2569,1.2573,1.2574,1.2595,1.2606,1.2601,1.2599,1.261,1.2621,1.2618,1.2623,1.2639,1.2633,1.2569,1.256,1.2551,1.2542,1.2641,1.2641,1.2699,1.2699,1.27]}]]